Location: �clusier
(49.9361°N, 2.7869°E)
Time: 20:47:40
(UTC+00:00)

Cosmos 2285 Rocket - Pass Details

Date: 16 June 2021
Orbit: 971 x 998 km, 74.0° (Epoch: 02 August)

Event Time Altitude Azimuth Distance (km) Brightness Sun altitude
Rises 20:36:14 0° 197° (SSW) 3,706 6.7 -5.1°
Reaches altitude 10° 20:38:47 10° 196° (SSW) 2,761 6.1 -5.4°
Maximum altitude 20:45:12 80° 111° (ESE) 1,018 4.1 -6.1°
Drops below altitude 10° 20:51:38 10° 26° (NNE) 2,771 6.7 -6.8°
Sets 20:54:12 0° 25° (NNE) 3,721 7.4 -7.0°
